Date String (YYYY-MM-DD hh:mm:ss) UTC,Instrument flags,absolute air pressure of the measurement (hPa),sample flow rate (lpm),inlet stack bypass flow (lpm),air temperature of the measurement (°C),ambient temperature measured by the external sensor (°C),aerosol sample conditioner tube jacket temperature (°C),OPC LED temperature (°C),internal box temperature (°C),relative humidity of the measurement (%),span deviation,mass concentration of particles derived from Lorenz-Mie calculation of OPC scattering (μg/m³),mass concentration of particles derived from Lorenz-Mie calculation of OPC scattering (μg/m³),mass concentration of particles derived from Lorenz-Mie calculation of OPC scattering (μg/m³)
DateTimeUTC,F1_M11,P_M11,Q1_M11,Q2_M11,T1_M11,T2_M11,T3_M11,T4_M11,T5_M11,U1_M11,ZSPAN_M11,X0_M11,X2_M11,X1_M11
2023-06-19 19:00:00,SystemResetWarning,0825.0,5.00,000.00,029.0,027.0,000.0,037.5,030.6,15.2,0000.0,0015.88,0005.01,0003.83
2023-06-19 19:01:00,SystemResetWarning,0825.0,5.00,000.00,029.0,027.3,000.0,037.5,030.7,17.2,0000.0,0015.26,0005.03,0003.83
2023-06-19 19:02:00,SystemResetWarning,0825.0,5.00,000.00,029.1,027.5,000.0,037.5,030.8,16.5,0000.0,0015.57,0005.05,0003.83
2023-06-19 19:03:00,SystemResetWarning,0825.0,4.99,000.00,029.1,026.9,000.0,037.5,030.8,16.1,0000.0,0015.65,0005.08,0003.83
2023-06-19 19:04:00,SystemResetWarning,0824.9,4.99,000.00,029.1,024.9,000.0,037.5,030.6,17.1,0000.0,0015.28,0005.07,0003.81
2023-06-19 19:05:00,SystemResetWarning,0824.9,5.02,000.00,029.1,024.3,000.0,037.4,030.6,17.3,0000.0,0015.65,0005.10,0003.79
2023-06-19 19:06:00,SystemResetWarning,0824.9,4.99,000.00,029.0,024.8,000.0,037.4,030.5,16.4,0000.0,0015.56,0005.08,0003.78
2023-06-19 19:07:00,SystemResetWarning,0824.9,5.00,000.00,028.9,025.3,000.0,037.4,030.3,15.3,0000.0,0015.84,0005.04,0003.75
2023-06-19 19:08:00,SystemResetWarning,0824.9,5.01,000.00,028.9,025.7,000.0,037.4,030.4,16.4,0000.0,0016.66,0005.04,0003.72
2023-06-19 19:09:00,SystemResetWarning,0824.9,4.99,000.00,028.9,026.2,000.0,037.4,030.4,17.9,0000.0,0016.92,0005.01,0003.69
2023-06-19 19:10:00,SystemResetWarning,0824.9,4.99,000.00,028.9,026.6,000.0,037.4,030.5,16.4,0000.0,0016.61,0004.99,0003.69
2023-06-19 19:11:00,SystemResetWarning,0824.9,5.00,000.00,029.0,026.9,000.0,037.5,030.6,15.1,0000.0,0016.08,0005.04,0003.68
2023-06-19 19:12:00,SystemResetWarning,0824.9,5.01,000.00,029.0,027.2,000.0,037.5,030.7,14.7,0000.0,0015.67,0005.03,0003.66
2023-06-19 19:13:00,SystemResetWarning,0825.0,4.99,000.00,029.1,027.5,000.0,037.5,030.8,15.4,0000.0,0015.95,0005.01,0003.64
2023-06-19 19:14:00,SystemResetWarning,0824.9,4.98,000.00,029.1,027.2,000.0,037.5,030.8,14.5,0000.0,0015.81,0004.98,0003.63
2023-06-19 19:15:00,SystemResetWarning,0824.9,5.01,000.00,029.1,025.1,000.0,037.4,030.7,16.0,0000.0,0016.01,0004.97,0003.63
2023-06-19 19:16:00,SystemResetWarning,0824.9,5.00,000.00,029.1,024.1,000.0,037.4,030.7,15.7,0000.0,0016.49,0004.97,0003.63
2023-06-19 19:17:00,SystemResetWarning,0825.0,5.02,000.00,029.0,024.7,000.0,037.4,030.5,14.9,0000.0,0016.27,0004.99,0003.62
2023-06-19 19:18:00,SystemResetWarning,0824.9,5.00,000.00,028.9,025.1,000.0,037.4,030.4,15.8,0000.0,0015.03,0004.95,0003.63
2023-06-19 19:19:00,SystemResetWarning,0825.0,5.00,000.00,028.9,025.6,000.0,037.4,030.3,15.4,0000.0,0014.62,0004.90,0003.63
2023-06-19 19:20:00,SystemResetWarning,0825.0,5.00,000.00,028.9,026.0,000.0,037.4,030.4,16.0,0000.0,0015.00,0004.91,0003.64
2023-06-19 19:21:00,SystemResetWarning,0824.9,4.99,000.00,028.9,026.5,000.0,037.4,030.5,16.5,0000.0,0014.96,0004.96,0003.64
2023-06-19 19:22:00,SystemResetWarning,0825.0,5.00,000.00,029.0,026.8,000.0,037.4,030.6,16.8,0000.0,0015.70,0004.89,0003.63
2023-06-19 19:23:00,SystemResetWarning,0825.0,5.02,000.00,029.0,027.1,000.0,037.5,030.7,16.4,0000.0,0016.03,0004.85,0003.63
2023-06-19 19:24:00,SystemResetWarning,0825.0,4.99,000.00,029.0,027.4,000.0,037.5,030.7,17.5,0000.0,0016.13,0004.84,0003.63
2023-06-19 19:25:00,SystemResetWarning,0825.0,4.99,000.00,029.1,027.6,000.0,037.5,030.8,18.0,0000.0,0016.87,0004.85,0003.63
2023-06-19 19:26:00,SystemResetWarning,0825.0,5.00,000.00,029.1,026.8,000.0,037.5,030.9,17.7,0000.0,0018.16,0004.88,0003.63
2023-06-19 19:27:00,SystemResetWarning,0825.0,5.00,000.00,029.1,025.3,000.0,037.4,030.8,18.3,0000.0,0018.57,0004.92,0003.64
2023-06-19 19:28:00,SystemResetWarning,0825.0,5.02,000.00,029.1,025.5,000.0,037.4,030.8,15.7,0000.0,0018.99,0004.94,0003.65
2023-06-19 19:29:00,SystemResetWarning,0824.9,4.98,000.00,029.1,025.8,000.0,037.5,030.6,16.2,0000.0,0019.80,0004.98,0003.66
2023-06-19 19:30:00,SystemResetWarning,0825.0,5.00,000.00,029.0,026.2,000.0,037.5,030.5,16.2,0000.0,0019.63,0005.01,0003.67
2023-06-19 19:31:00,SystemResetWarning,0824.9,5.02,000.00,029.1,026.6,000.0,037.5,030.6,15.9,0000.0,0019.80,0005.03,0003.67
2023-06-19 19:32:00,SystemResetWarning,0824.9,5.00,000.00,029.1,026.9,000.0,037.5,030.7,14.6,0000.0,0019.50,0005.03,0003.68
2023-06-19 19:33:00,SystemResetWarning,0825.0,4.99,000.00,029.1,027.2,000.0,037.5,030.8,16.1,0000.0,0018.71,0005.09,0003.70
2023-06-19 19:34:00,SystemResetWarning,0824.9,4.99,000.00,029.2,027.3,000.0,037.6,030.8,16.8,0000.0,0018.05,0005.10,0003.72
2023-06-19 19:35:00,SystemResetWarning,0824.9,5.00,000.00,029.2,025.6,000.0,037.5,030.7,19.0,0000.0,0017.82,0005.14,0003.73
2023-06-19 19:36:00,SystemResetWarning,0824.9,5.00,000.00,029.1,024.2,000.0,037.4,030.5,18.0,0000.0,0016.93,0005.16,0003.74
2023-06-19 19:37:00,SystemResetWarning,0824.9,5.02,000.00,029.0,024.5,000.0,037.4,030.5,16.8,0000.0,0015.35,0005.12,0003.75
2023-06-19 19:38:00,SystemResetWarning,0824.9,5.00,000.00,029.0,025.0,000.0,037.4,030.3,16.5,0000.0,0014.61,0005.08,0003.76
2023-06-19 19:39:00,SystemResetWarning,0824.9,5.00,000.00,028.9,025.4,000.0,037.4,030.3,17.8,0000.0,0015.11,0005.08,0003.77
2023-06-19 19:40:00,SystemResetWarning,0824.9,5.00,000.00,028.9,025.9,000.0,037.4,030.4,20.7,0000.0,0014.71,0005.10,0003.77
2023-06-19 19:41:00,SystemResetWarning,0824.9,5.00,000.00,028.9,026.4,000.0,037.5,030.5,18.7,0000.0,0014.04,0005.15,0003.78
2023-06-19 19:42:00,SystemResetWarning,0824.9,4.99,000.00,029.0,026.8,000.0,037.5,030.6,17.7,0000.0,0013.53,0005.19,0003.79
2023-06-19 19:43:00,SystemResetWarning,0824.9,5.00,000.00,029.0,027.1,000.0,037.5,030.7,18.3,0000.0,0013.71,0005.20,0003.80
2023-06-19 19:44:00,SystemResetWarning,0824.9,5.00,000.00,029.0,027.4,000.0,037.5,030.7,17.7,0000.0,0013.41,0005.17,0003.80
2023-06-19 19:45:00,SystemResetWarning,0824.9,5.00,000.00,029.1,027.6,000.0,037.5,030.8,18.4,0000.0,0013.40,0005.19,0003.80
2023-06-19 19:46:00,SystemResetWarning,0824.9,5.00,000.00,029.1,027.3,000.0,037.5,030.9,18.2,0000.0,0013.82,0005.17,0003.80
2023-06-19 19:47:00,SystemResetWarning,0824.9,4.99,000.00,029.1,025.2,000.0,037.5,030.7,18.0,0000.0,0013.94,0005.17,0003.79
2023-06-19 19:48:00,SystemResetWarning,0824.9,5.01,000.00,029.1,024.2,000.0,037.4,030.6,18.2,0000.0,0013.81,0005.19,0003.79
2023-06-19 19:49:00,SystemResetWarning,0824.9,5.01,000.00,029.0,024.7,000.0,037.4,030.5,17.5,0000.0,0013.84,0005.24,0003.79
2023-06-19 19:50:00,SystemResetWarning,0824.9,5.00,000.00,029.0,025.1,000.0,037.4,030.3,19.3,0000.0,0014.12,0005.24,0003.78
2023-06-19 19:51:00,SystemResetWarning,0824.8,5.00,000.00,028.9,025.6,000.0,037.4,030.3,17.9,0000.0,0013.93,0005.20,0003.78
2023-06-19 19:52:00,SystemResetWarning,0824.9,4.99,000.00,028.9,026.1,000.0,037.4,030.4,16.4,0000.0,0014.14,0005.16,0003.78
2023-06-19 19:53:00,SystemResetWarning,0824.8,5.00,000.00,028.9,026.5,000.0,037.4,030.5,17.2,0000.0,0014.10,0005.09,0003.78
2023-06-19 19:54:00,SystemResetWarning,0824.8,5.01,000.00,029.0,026.8,000.0,037.5,030.6,19.5,0000.0,0014.48,0005.04,0003.78
2023-06-19 19:55:00,SystemResetWarning,0824.8,4.99,000.00,029.0,027.1,000.0,037.5,030.6,17.6,0000.0,0014.86,0005.02,0003.78
2023-06-19 19:56:00,SystemResetWarning,0824.9,5.00,000.00,029.0,027.4,000.0,037.5,030.7,17.8,0000.0,0015.29,0005.00,0003.76
2023-06-19 19:57:00,SystemResetWarning,0824.9,4.99,000.00,029.1,027.4,000.0,037.5,030.8,17.0,0000.0,0014.90,0005.00,0003.77
2023-06-19 19:58:00,SystemResetWarning,0824.9,5.00,000.00,029.1,025.6,000.0,037.5,030.7,19.3,0000.0,0015.16,0004.97,0003.76
2023-06-19 19:59:00,SystemResetWarning,0824.9,5.00,000.00,029.0,024.3,000.0,037.4,030.5,17.1,0000.0,0015.41,0004.97,0003.75
